TimeMDT,TemperatureF,Dew PointF,Humidity,Sea Level PressureIn,VisibilityMPH,Wind Direction,Wind SpeedMPH,Gust SpeedMPH,PrecipitationIn,Events,Conditions,WindDirDegrees,DateUTC
12:16 AM,21.2,19.4,93,30.07,0.2,North,-9999.0,-,N/A,,Overcast,0,2013-10-30 06:16:00
12:36 AM,21.2,19.4,93,30.07,0.2,North,-9999.0,-,N/A,Fog,Light Freezing Fog,0,2013-10-30 06:36:00
12:56 AM,21.2,19.4,93,30.08,0.2,North,-9999.0,-,N/A,Fog,Light Freezing Fog,0,2013-10-30 06:56:00
1:16 AM,21.2,19.4,93,30.08,0.2,North,-9999.0,-,N/A,Fog,Light Freezing Fog,0,2013-10-30 07:16:00
1:36 AM,21.2,19.4,93,30.08,0.2,North,-9999.0,-,N/A,Fog,Light Freezing Fog,0,2013-10-30 07:36:00
1:56 AM,19.4,17.6,93,30.08,0.2,North,-9999.0,-,N/A,Fog,Light Freezing Fog,0,2013-10-30 07:56:00
2:16 AM,19.4,17.6,93,30.08,0.5,North,-9999.0,-,N/A,Fog,Light Freezing Fog,0,2013-10-30 08:16:00
2:36 AM,19.4,17.6,93,30.08,0.2,North,-9999.0,-,N/A,Fog,Light Freezing Fog,0,2013-10-30 08:36:00
2:56 AM,19.4,17.6,93,30.07,0.2,North,-9999.0,-,N/A,Fog,Light Freezing Fog,0,2013-10-30 08:56:00
3:16 AM,19.4,17.6,93,30.07,0.2,North,-9999.0,-,N/A,Fog,Light Freezing Fog,0,2013-10-30 09:16:00
3:36 AM,19.4,17.6,93,30.07,0.2,North,-9999.0,-,N/A,Fog,Light Freezing Fog,0,2013-10-30 09:36:00
3:56 AM,19.4,15.8,86,30.07,0.2,North,-9999.0,-,N/A,Fog,Light Freezing Fog,0,2013-10-30 09:56:00
4:16 AM,17.6,15.8,93,30.07,0.8,North,-9999.0,-,N/A,,Overcast,0,2013-10-30 10:16:00
4:36 AM,17.6,14.0,86,30.07,3.0,North,-9999.0,-,N/A,,Overcast,0,2013-10-30 10:36:00
4:56 AM,17.6,14.0,86,30.06,1.8,North,-9999.0,-,N/A,,Overcast,0,2013-10-30 10:56:00
5:16 AM,17.6,14.0,86,30.07,0.5,North,-9999.0,-,N/A,Fog,Light Freezing Fog,0,2013-10-30 11:16:00
5:36 AM,15.8,12.2,86,30.06,2.5,North,-9999.0,-,N/A,,Overcast,0,2013-10-30 11:36:00
5:56 AM,15.8,14.0,93,30.07,10.0,North,-9999.0,-,N/A,,Overcast,0,2013-10-30 11:56:00
6:16 AM,15.8,14.0,93,30.07,10.0,North,-9999.0,-,N/A,,Overcast,0,2013-10-30 12:16:00
6:36 AM,15.8,14.0,93,30.07,4.0,North,-9999.0,-,N/A,,Overcast,0,2013-10-30 12:36:00
6:56 AM,17.6,14.0,86,30.07,0.5,North,-9999.0,-,N/A,Fog,Light Freezing Fog,0,2013-10-30 12:56:00
7:16 AM,17.6,14.0,86,30.07,0.5,North,-9999.0,-,N/A,Fog,Light Freezing Fog,0,2013-10-30 13:16:00
7:36 AM,15.8,12.2,86,30.07,1.5,North,-9999.0,-,N/A,,Overcast,0,2013-10-30 13:36:00
7:56 AM,15.8,14.0,93,30.07,0.2,North,-9999.0,-,N/A,Fog,Light Freezing Fog,0,2013-10-30 13:56:00
8:16 AM,15.8,14.0,93,30.08,0.2,North,-9999.0,-,N/A,Fog,Light Freezing Fog,0,2013-10-30 14:16:00
8:36 AM,17.6,14.0,86,30.08,0.2,North,-9999.0,-,N/A,Fog,Light Freezing Fog,0,2013-10-30 14:36:00
8:56 AM,17.6,14.0,86,30.08,0.2,North,-9999.0,-,N/A,Fog,Light Freezing Fog,0,2013-10-30 14:56:00
9:16 AM,17.6,14.0,86,30.09,0.2,North,-9999.0,-,N/A,Fog,Light Freezing Fog,0,2013-10-30 15:16:00
9:36 AM,17.6,14.0,86,30.09,0.2,North,-9999.0,-,N/A,Fog,Light Freezing Fog,0,2013-10-30 15:36:00
9:56 AM,17.6,14.0,86,30.09,0.2,North,-9999.0,-,N/A,Fog,Light Freezing Fog,0,2013-10-30 15:56:00
10:16 AM,17.6,14.0,86,30.09,0.8,North,-9999.0,-,N/A,Snow,Light Snow,0,2013-10-30 16:16:00
10:36 AM,17.6,14.0,86,30.09,7.0,North,-9999.0,-,N/A,Snow,Light Snow,0,2013-10-30 16:36:00
10:56 AM,17.6,14.0,86,30.09,10.0,North,-9999.0,-,N/A,Snow,Light Snow,0,2013-10-30 16:56:00
11:16 AM,17.6,14.0,86,30.09,7.0,North,-9999.0,-,N/A,Snow,Light Snow,0,2013-10-30 17:16:00
11:36 AM,17.6,14.0,86,30.10,10.0,North,-9999.0,-,N/A,,Overcast,0,2013-10-30 17:36:00
11:56 AM,17.6,14.0,86,30.09,10.0,North,-9999.0,-,N/A,Snow,Light Snow,0,2013-10-30 17:56:00
12:16 PM,17.6,15.8,93,30.09,7.0,North,-9999.0,-,N/A,Snow,Light Snow,0,2013-10-30 18:16:00
12:36 PM,17.6,15.8,93,30.07,10.0,North,-9999.0,-,N/A,,Overcast,0,2013-10-30 18:36:00
12:56 PM,19.4,17.6,93,30.07,10.0,North,-9999.0,-,N/A,,Overcast,0,2013-10-30 18:56:00
1:16 PM,19.4,17.6,93,30.06,10.0,North,-9999.0,-,N/A,,Overcast,0,2013-10-30 19:16:00
1:36 PM,19.4,17.6,93,30.04,10.0,North,-9999.0,-,N/A,,Overcast,0,2013-10-30 19:36:00
1:56 PM,19.4,17.6,93,30.04,10.0,North,-9999.0,-,N/A,,Overcast,0,2013-10-30 19:56:00
2:16 PM,19.4,17.6,93,30.02,10.0,North,-9999.0,-,N/A,,Overcast,0,2013-10-30 20:16:00
2:36 PM,19.4,17.6,93,30.02,5.0,North,-9999.0,-,N/A,Snow,Light Snow,0,2013-10-30 20:36:00
2:56 PM,19.4,17.6,93,30.02,1.5,North,-9999.0,-,N/A,Snow,Light Snow,0,2013-10-30 20:56:00
3:16 PM,19.4,17.6,93,30.03,0.2,North,-9999.0,-,N/A,Snow,Light Snow,0,2013-10-30 21:16:00
3:36 PM,19.4,15.8,86,30.03,2.5,North,-9999.0,-,N/A,Snow,Light Snow,0,2013-10-30 21:36:00
3:56 PM,19.4,17.6,93,30.04,0.2,North,-9999.0,-,N/A,Snow,Light Snow,0,2013-10-30 21:56:00
4:16 PM,17.6,15.8,93,30.04,10.0,North,-9999.0,-,N/A,,Overcast,0,2013-10-30 22:16:00
4:36 PM,19.4,17.6,93,30.04,2.0,North,-9999.0,-,N/A,,Overcast,0,2013-10-30 22:36:00
4:56 PM,19.4,17.6,93,30.04,1.2,North,-9999.0,-,N/A,Snow,Light Snow,0,2013-10-30 22:56:00
5:16 PM,19.4,17.6,93,30.04,1.0,North,-9999.0,-,N/A,Snow,Light Snow,0,2013-10-30 23:16:00
5:36 PM,19.4,17.6,93,30.04,0.2,North,-9999.0,-,N/A,Snow,Light Snow,0,2013-10-30 23:36:00
5:56 PM,19.4,15.8,86,30.04,0.2,North,-9999.0,-,N/A,Fog,Light Freezing Fog,0,2013-10-30 23:56:00
6:16 PM,19.4,15.8,86,30.04,0.2,North,-9999.0,-,N/A,Snow,Light Snow,0,2013-10-31 00:16:00
6:36 PM,19.4,15.8,86,30.04,0.2,North,-9999.0,-,N/A,Snow,Light Snow,0,2013-10-31 00:36:00
6:56 PM,19.4,15.8,86,30.04,0.2,North,-9999.0,-,N/A,Snow,Light Snow,0,2013-10-31 00:56:00
7:16 PM,19.4,15.8,86,30.04,0.2,North,-9999.0,-,N/A,Fog,Light Freezing Fog,0,2013-10-31 01:16:00
7:36 PM,17.6,15.8,93,30.04,0.2,North,-9999.0,-,N/A,Fog,Light Freezing Fog,0,2013-10-31 01:36:00
7:56 PM,17.6,15.8,93,30.03,0.2,North,-9999.0,-,N/A,Fog,Light Freezing Fog,0,2013-10-31 01:56:00
8:16 PM,17.6,14.0,86,30.02,0.2,North,-9999.0,-,N/A,Fog,Light Freezing Fog,0,2013-10-31 02:16:00
8:36 PM,17.6,14.0,86,30.02,0.2,North,-9999.0,-,N/A,Fog,Light Freezing Fog,0,2013-10-31 02:36:00
8:56 PM,17.6,14.0,86,30.02,0.2,North,-9999.0,-,N/A,Fog,Light Freezing Fog,0,2013-10-31 02:56:00
9:16 PM,17.6,14.0,86,30.02,0.2,North,-9999.0,-,N/A,Fog,Light Freezing Fog,0,2013-10-31 03:16:00
9:36 PM,17.6,14.0,86,30.02,0.2,North,-9999.0,-,N/A,Fog,Light Freezing Fog,0,2013-10-31 03:36:00
9:56 PM,15.8,14.0,93,30.02,0.2,North,-9999.0,-,N/A,Fog,Light Freezing Fog,0,2013-10-31 03:56:00
10:16 PM,17.6,14.0,86,30.04,0.2,North,-9999.0,-,N/A,Fog,Light Freezing Fog,0,2013-10-31 04:16:00
10:36 PM,17.6,14.0,86,30.04,0.2,North,-9999.0,-,N/A,Fog,Light Freezing Fog,0,2013-10-31 04:36:00
10:56 PM,15.8,14.0,93,30.04,0.2,North,-9999.0,-,N/A,Snow,Light Snow,0,2013-10-31 04:56:00
11:16 PM,15.8,14.0,93,30.04,0.2,North,-9999.0,-,N/A,Fog,Light Freezing Fog,0,2013-10-31 05:16:00
11:36 PM,15.8,12.2,86,30.04,0.2,North,-9999.0,-,N/A,Snow,Light Snow,0,2013-10-31 05:36:00
11:56 PM,15.8,12.2,86,30.02,0.2,North,-9999.0,-,N/A,Snow,Light Snow,0,2013-10-31 05:56:00